Location: Huppendorf
(49.9333°N, 11.1500°E)
Time: 20:37:23
(UTC+00:00)

STARLINK-49 - Pass Details

Date: 27 February 2020
Orbit: 529 x 530 km, 53.0° (Epoch: 03 April)

Event Time Altitude Azimuth Distance (km) Brightness Sun altitude
Rises 17:17:14 0° 263° (W) 2,665 10.3 -4.6°
Reaches altitude 10° 17:19:28 10° 266° (W) 1,777 8.2 -5.0°
Maximum altitude 17:23:28 62° 348° (NNW) 601 3.9 -5.6°
Drops below altitude 10° 17:27:25 10° 70° (ENE) 1,754 5.6 -6.3°
Enters shadow 17:28:00 - 71° (ENE) 1,986 5.8 -6.4°
